RWZ4053 USTR-UWKD

Flight info

Callsign RWZ4053
Flight time 1h 24m
Altitude 32000
Route BEPAR1S BEPAR T448 BANAM T348 EKB M864 AGNOK T796 ORTIM ORTIM1T
Aircraft T204/M-SDE2E3FGHIJ3J4J7RWXY/LB1

Departure

Time 2026-04-19 22:10
Airport Roshchino International Airport (USTR)

Arrival

Time 2026-04-19 23:35
Airport Kazan International Airport (UWKD)
Time Latitude Longitude Altitude Speed Heading
2026-04-19 21:54 57.18077 65.34793 329 ft 0 kts 45°
2026-04-19 22:01 57.18069 65.34776 329 ft 2 kts 47°
2026-04-19 22:01 57.18058 65.34756 329 ft 2 kts 44°
2026-04-19 22:01 57.18048 65.34737 329 ft 2 kts 45°
2026-04-19 22:01 57.18036 65.34719 329 ft 2 kts 20°
2026-04-19 22:02 57.18022 65.34717 330 ft 2 kts 351°
2026-04-19 22:02 57.18008 65.34728 330 ft 2 kts 320°
2026-04-19 22:02 57.17999 65.34748 330 ft 2 kts 314°
2026-04-19 22:02 57.17988 65.34768 330 ft 2 kts 315°
2026-04-19 22:03 57.17977 65.34788 331 ft 2 kts 314°
2026-04-19 22:03 57.17966 65.34808 331 ft 2 kts 314°
2026-04-19 22:05 57.17968 65.34806 331 ft 2 kts 314°
2026-04-19 22:05 57.18001 65.34704 330 ft 12 kts 259°
2026-04-19 22:05 57.17943 65.34583 331 ft 15 kts 224°
2026-04-19 22:05 57.17888 65.34383 333 ft 16 kts 297°
2026-04-19 22:06 57.17988 65.34216 333 ft 24 kts 315°
2026-04-19 22:06 57.18144 65.33926 331 ft 37 kts 314°
2026-04-19 22:06 57.18340 65.33571 327 ft 38 kts 315°
2026-04-19 22:06 57.18531 65.33212 321 ft 38 kts 314°
2026-04-19 22:07 57.18720 65.32861 317 ft 38 kts 316°
2026-04-19 22:07 57.18875 65.32573 313 ft 25 kts 313°
2026-04-19 22:07 57.18967 65.32420 311 ft 5 kts 300°
2026-04-19 22:07 57.18961 65.32385 311 ft 1 kts 188°
2026-04-19 22:08 57.18958 65.32385 312 ft 0 kts 168°
2026-04-19 22:08 57.18932 65.32438 312 ft 6 kts 122°
2026-04-19 22:08 57.18907 65.32503 312 ft 0 kts 137°
2026-04-19 22:09 57.18894 65.32526 313 ft 19 kts 137°
2026-04-19 22:10 57.18579 65.33115 320 ft 107 kts 134°
2026-04-19 22:10 57.17886 65.34425 548 ft 167 kts 134°
2026-04-19 22:10 57.17015 65.36025 1049 ft 186 kts 134°
2026-04-19 22:10 57.16273 65.38012 1251 ft 190 kts 122°
2026-04-19 22:11 57.15216 65.39419 1742 ft 195 kts 171°
2026-04-19 22:11 57.13921 65.38917 2277 ft 198 kts 216°
2026-04-19 22:11 57.13163 65.36820 2833 ft 217 kts 259°
2026-04-19 22:11 57.13094 65.33819 3624 ft 257 kts 271°
2026-04-19 22:12 57.13157 65.30243 4301 ft 303 kts 272°
2026-04-19 22:12 57.13250 65.26002 5003 ft 347 kts 272°
2026-04-19 22:12 57.13349 65.21372 5930 ft 371 kts 272°
2026-04-19 22:12 57.13447 65.16611 7097 ft 382 kts 272°
2026-04-19 22:13 57.13547 65.11659 8377 ft 390 kts 272°
2026-04-19 22:13 57.13645 65.06678 9680 ft 398 kts 272°
2026-04-19 22:13 57.13742 65.01651 10998 ft 405 kts 272°
2026-04-19 22:13 57.13841 64.96428 12368 ft 412 kts 272°
2026-04-19 22:14 57.13938 64.91171 13724 ft 418 kts 272°
2026-04-19 22:14 57.14034 64.85867 15042 ft 422 kts 272°
2026-04-19 22:14 57.14128 64.80524 16311 ft 426 kts 272°
2026-04-19 22:14 57.14222 64.75064 17527 ft 431 kts 272°
2026-04-19 22:15 57.14315 64.69554 18665 ft 436 kts 272°
2026-04-19 22:15 57.14406 64.63983 19737 ft 441 kts 272°
2026-04-19 22:15 57.14496 64.58343 20750 ft 447 kts 272°
2026-04-19 22:15 57.14585 64.52597 21714 ft 452 kts 272°
2026-04-19 22:16 57.14634 64.46819 22598 ft 458 kts 269°
2026-04-19 22:16 57.14428 64.40995 23405 ft 465 kts 266°
2026-04-19 22:16 57.14223 64.34992 24206 ft 471 kts 266°
2026-04-19 22:16 57.13992 64.28946 24961 ft 478 kts 266°
2026-04-19 22:17 57.13777 64.22898 25665 ft 484 kts 266°
2026-04-19 22:17 57.13557 64.16688 26341 ft 491 kts 266°
2026-04-19 22:17 57.13342 64.10401 26980 ft 498 kts 266°
2026-04-19 22:17 57.13126 64.04029 27591 ft 503 kts 266°
2026-04-19 22:18 57.12910 63.97528 28177 ft 508 kts 266°
2026-04-19 22:18 57.12698 63.91044 28719 ft 511 kts 266°
2026-04-19 22:18 57.12486 63.84481 29224 ft 515 kts 266°
2026-04-19 22:18 57.12278 63.77931 29689 ft 518 kts 266°
2026-04-19 22:19 57.11789 63.71389 30068 ft 519 kts 258°
2026-04-19 22:19 57.10983 63.64978 30557 ft 518 kts 257°
2026-04-19 22:19 57.10133 63.58562 30961 ft 519 kts 256°
2026-04-19 22:20 57.08341 63.45626 31081 ft 524 kts 256°
2026-04-19 22:20 57.07443 63.39147 31317 ft 523 kts 256°
2026-04-19 22:20 57.06559 63.32732 31494 ft 522 kts 255°
2026-04-19 22:20 57.05670 63.26254 31679 ft 522 kts 256°
2026-04-19 22:21 57.04787 63.19801 31870 ft 521 kts 256°
2026-04-19 22:21 57.03921 63.13438 32055 ft 521 kts 256°
2026-04-19 22:21 57.03047 63.07002 32131 ft 506 kts 256°
2026-04-19 22:21 57.02222 63.00909 32074 ft 483 kts 256°
2026-04-19 22:22 57.01432 62.95058 32111 ft 473 kts 256°
2026-04-19 22:22 56.99858 62.83320 32125 ft 475 kts 256°
2026-04-19 22:23 56.98297 62.71576 32125 ft 476 kts 256°
2026-04-19 22:23 56.96747 62.59848 32125 ft 476 kts 257°
2026-04-19 22:24 56.95205 62.48096 32126 ft 476 kts 257°
2026-04-19 22:24 56.93674 62.36344 32126 ft 476 kts 257°
2026-04-19 22:25 56.92149 62.24553 32126 ft 476 kts 256°
2026-04-19 22:25 56.90640 62.12801 32126 ft 476 kts 257°
2026-04-19 22:26 56.89140 62.01036 32126 ft 476 kts 257°
2026-04-19 22:26 56.87652 61.89276 32126 ft 476 kts 257°
2026-04-19 22:27 56.86180 61.77553 32126 ft 476 kts 257°
2026-04-19 22:27 56.84708 61.65748 32126 ft 476 kts 257°
2026-04-19 22:28 56.83250 61.53964 32126 ft 476 kts 258°
2026-04-19 22:28 56.81812 61.42247 32126 ft 476 kts 258°
2026-04-19 22:29 56.80376 61.30454 32126 ft 476 kts 257°
2026-04-19 22:29 56.78962 61.18761 32126 ft 476 kts 257°
2026-04-19 22:30 56.77591 61.07331 32126 ft 476 kts 257°
2026-04-19 22:30 56.76189 60.95557 32126 ft 476 kts 258°
2026-04-19 22:31 56.74822 60.83743 32119 ft 476 kts 261°
2026-04-19 22:31 56.74704 60.77742 32091 ft 475 kts 274°
2026-04-19 22:31 56.74975 60.71755 32184 ft 477 kts 275°
2026-04-19 22:32 56.75714 60.59785 32139 ft 476 kts 277°
2026-04-19 22:32 56.76518 60.47795 32126 ft 476 kts 277°
2026-04-19 22:33 56.77330 60.35917 32124 ft 476 kts 277°
2026-04-19 22:33 56.78163 60.23915 32125 ft 476 kts 277°
2026-04-19 22:34 56.78998 60.11971 32125 ft 476 kts 277°
2026-04-19 22:34 56.79689 59.99986 32126 ft 476 kts 276°
2026-04-19 22:35 56.80341 59.88027 32126 ft 476 kts 276°
2026-04-19 22:35 56.81000 59.76025 32126 ft 476 kts 276°
2026-04-19 22:36 56.81667 59.64062 32126 ft 476 kts 276°
2026-04-19 22:36 56.82349 59.52027 32126 ft 476 kts 276°
2026-04-19 22:37 56.83040 59.40047 32126 ft 476 kts 276°
2026-04-19 22:37 56.83738 59.28132 32126 ft 476 kts 276°
2026-04-19 22:38 56.84452 59.16132 32126 ft 476 kts 276°
2026-04-19 22:38 56.85143 59.04044 32119 ft 476 kts 273°
2026-04-19 22:39 56.85246 58.92040 32129 ft 477 kts 270°
2026-04-19 22:39 56.85249 58.79991 32128 ft 476 kts 270°
2026-04-19 22:40 56.85253 58.67887 32127 ft 476 kts 270°
2026-04-19 22:40 56.85266 58.55804 32126 ft 476 kts 270°
2026-04-19 22:41 56.85290 58.43834 32126 ft 476 kts 271°
2026-04-19 22:41 56.85326 58.31698 32126 ft 476 kts 270°
2026-04-19 22:42 56.85373 58.19685 32126 ft 476 kts 270°
2026-04-19 22:42 56.85432 58.07596 32126 ft 476 kts 270°
2026-04-19 22:43 56.85503 57.95550 32126 ft 476 kts 271°
2026-04-19 22:43 56.85585 57.83529 32126 ft 476 kts 271°
2026-04-19 22:44 56.85679 57.71486 32126 ft 476 kts 271°
2026-04-19 22:44 56.85784 57.59412 32126 ft 476 kts 271°
2026-04-19 22:45 56.85901 57.47369 32126 ft 476 kts 271°
2026-04-19 22:45 56.86030 57.35303 32126 ft 476 kts 271°
2026-04-19 22:46 56.86170 57.23233 32126 ft 476 kts 271°
2026-04-19 22:46 56.86322 57.11196 32126 ft 476 kts 271°
2026-04-19 22:47 56.86486 56.99129 32126 ft 476 kts 271°
2026-04-19 22:47 56.86661 56.87079 32126 ft 476 kts 271°
2026-04-19 22:48 56.86848 56.75013 32126 ft 476 kts 272°
2026-04-19 22:48 56.87040 56.63292 32126 ft 476 kts 272°
2026-04-19 22:49 56.87250 56.51232 32126 ft 476 kts 272°
2026-04-19 22:49 56.87441 56.39186 32125 ft 476 kts 271°
2026-04-19 22:50 56.87530 56.27125 32126 ft 476 kts 270°
2026-04-19 22:50 56.87621 56.15029 32126 ft 476 kts 271°
2026-04-19 22:51 56.87723 56.03007 32126 ft 476 kts 271°
2026-04-19 22:51 56.87296 55.90981 32078 ft 476 kts 255°
2026-04-19 22:51 56.86265 55.85285 32189 ft 476 kts 251°
2026-04-19 22:52 56.83847 55.74056 32133 ft 476 kts 247°
2026-04-19 22:52 56.81226 55.62974 31891 ft 476 kts 246°
2026-04-19 22:53 56.78597 55.52039 31952 ft 473 kts 246°
2026-04-19 22:53 56.75937 55.40973 31955 ft 475 kts 247°
2026-04-19 22:54 56.73312 55.30029 31958 ft 475 kts 246°
2026-04-19 22:54 56.70684 55.19032 31961 ft 475 kts 246°
2026-04-19 22:55 56.68074 55.08070 31962 ft 475 kts 246°
2026-04-19 22:55 56.65454 54.97021 31962 ft 475 kts 246°
2026-04-19 22:56 56.62857 54.86032 31962 ft 475 kts 247°
2026-04-19 22:56 56.60256 54.74986 31962 ft 475 kts 247°
2026-04-19 22:57 56.57692 54.64057 31962 ft 475 kts 247°
2026-04-19 22:57 56.55107 54.52995 31962 ft 475 kts 248°
2026-04-19 22:58 56.52546 54.41991 31962 ft 475 kts 248°
2026-04-19 22:58 56.50009 54.31052 31962 ft 475 kts 247°
2026-04-19 22:59 56.47378 54.20141 31962 ft 475 kts 245°
2026-04-19 22:59 56.44665 54.09283 31961 ft 475 kts 245°
2026-04-19 23:00 56.41974 53.98471 31313 ft 461 kts 246°
2026-04-19 23:00 56.40688 53.93301 30842 ft 443 kts 246°
2026-04-19 23:00 56.39455 53.88380 30453 ft 425 kts 246°
2026-04-19 23:01 56.38258 53.83611 30026 ft 411 kts 246°
2026-04-19 23:01 56.37103 53.79011 29609 ft 398 kts 246°
2026-04-19 23:01 56.35983 53.74548 29197 ft 386 kts 246°
2026-04-19 23:01 56.34905 53.70248 28794 ft 376 kts 246°
2026-04-19 23:02 56.33843 53.66006 28389 ft 367 kts 246°
2026-04-19 23:02 56.32803 53.61848 27985 ft 358 kts 246°
2026-04-19 23:02 56.31780 53.57870 27617 ft 350 kts 245°
2026-04-19 23:02 56.30756 53.53961 27420 ft 337 kts 245°
2026-04-19 23:03 56.29778 53.50254 27220 ft 325 kts 245°
2026-04-19 23:03 56.28820 53.46641 27024 ft 316 kts 245°
2026-04-19 23:03 56.27883 53.43111 26863 ft 314 kts 245°
2026-04-19 23:03 56.26946 53.39577 26728 ft 317 kts 245°
2026-04-19 23:04 56.26000 53.36007 26595 ft 319 kts 245°
2026-04-19 23:04 56.25040 53.32379 26453 ft 320 kts 244°
2026-04-19 23:04 56.24096 53.28806 26306 ft 320 kts 244°
2026-04-19 23:04 56.23139 53.25184 26153 ft 319 kts 244°
2026-04-19 23:05 56.22195 53.21607 26001 ft 317 kts 244°
2026-04-19 23:05 56.21259 53.18056 25849 ft 316 kts 244°
2026-04-19 23:05 56.20312 53.14460 25696 ft 316 kts 244°
2026-04-19 23:05 56.19381 53.10921 25546 ft 315 kts 245°
2026-04-19 23:06 56.18447 53.07366 25395 ft 314 kts 245°
2026-04-19 23:06 56.17524 53.03849 25245 ft 313 kts 245°
2026-04-19 23:06 56.16604 53.00340 25095 ft 313 kts 245°
2026-04-19 23:06 56.15675 52.96794 24943 ft 312 kts 245°
2026-04-19 23:07 56.14758 52.93288 24792 ft 311 kts 245°
2026-04-19 23:07 56.13850 52.89812 24643 ft 310 kts 245°
2026-04-19 23:07 56.12942 52.86332 24493 ft 310 kts 245°
2026-04-19 23:07 56.12028 52.82827 24341 ft 309 kts 245°
2026-04-19 23:08 56.11127 52.79369 24191 ft 308 kts 245°
2026-04-19 23:08 56.10226 52.75906 24040 ft 307 kts 245°
2026-04-19 23:08 56.09330 52.72458 23890 ft 307 kts 245°
2026-04-19 23:08 56.08427 52.68979 23738 ft 306 kts 245°
2026-04-19 23:09 56.07539 52.65556 23588 ft 305 kts 245°
2026-04-19 23:09 56.06656 52.62147 23439 ft 304 kts 245°
2026-04-19 23:09 56.05756 52.58719 23287 ft 304 kts 245°
2026-04-19 23:09 56.04839 52.55326 23136 ft 303 kts 244°
2026-04-19 23:10 56.03914 52.51941 22985 ft 302 kts 244°
2026-04-19 23:10 56.02971 52.48512 22883 ft 314 kts 244°
2026-04-19 23:10 56.01997 52.44982 22771 ft 320 kts 244°
2026-04-19 23:10 56.01014 52.41418 22631 ft 321 kts 244°
2026-04-19 23:11 56.00021 52.37822 22478 ft 320 kts 244°
2026-04-19 23:11 55.99047 52.34294 22324 ft 318 kts 243°
2026-04-19 23:11 55.98066 52.30740 22169 ft 317 kts 243°
2026-04-19 23:11 55.97093 52.27208 22016 ft 316 kts 244°
2026-04-19 23:12 55.96118 52.23667 21864 ft 315 kts 244°
2026-04-19 23:12 55.95154 52.20163 21714 ft 314 kts 244°
2026-04-19 23:12 55.94201 52.16696 21564 ft 314 kts 244°
2026-04-19 23:12 55.93234 52.13174 21412 ft 313 kts 244°
2026-04-19 23:13 55.92288 52.09726 21263 ft 312 kts 244°
2026-04-19 23:13 55.91340 52.06265 21112 ft 311 kts 244°
2026-04-19 23:13 55.90385 52.02776 20961 ft 311 kts 244°
2026-04-19 23:13 55.89439 51.99314 20809 ft 310 kts 244°
2026-04-19 23:14 55.88499 51.95874 20659 ft 309 kts 244°
2026-04-19 23:14 55.87572 51.92476 20510 ft 308 kts 244°
2026-04-19 23:14 55.86630 51.89018 20358 ft 308 kts 244°
2026-04-19 23:14 55.85701 51.85609 20208 ft 307 kts 244°
2026-04-19 23:15 55.84780 51.82222 20058 ft 306 kts 244°
2026-04-19 23:15 55.83844 51.78777 19808 ft 308 kts 244°
2026-04-19 23:15 55.82920 51.75371 19370 ft 308 kts 244°
2026-04-19 23:15 55.81991 51.71948 18941 ft 305 kts 244°
2026-04-19 23:16 55.81086 51.68605 18515 ft 303 kts 244°
2026-04-19 23:16 55.80177 51.65247 18084 ft 300 kts 244°
2026-04-19 23:16 55.79273 51.61903 17653 ft 298 kts 245°
2026-04-19 23:16 55.78392 51.58638 17230 ft 296 kts 245°
2026-04-19 23:17 55.77508 51.55363 16803 ft 294 kts 245°
2026-04-19 23:17 55.76633 51.52118 16378 ft 292 kts 245°
2026-04-19 23:17 55.75761 51.48880 15896 ft 292 kts 245°
2026-04-19 23:17 55.74883 51.45614 15326 ft 295 kts 245°
2026-04-19 23:18 55.74005 51.42348 14776 ft 297 kts 245°
2026-04-19 23:18 55.73112 51.39015 14213 ft 299 kts 245°
2026-04-19 23:18 55.72300 51.35662 13657 ft 300 kts 248°
2026-04-19 23:18 55.71493 51.32266 13096 ft 301 kts 247°
2026-04-19 23:19 55.70669 51.28827 12527 ft 301 kts 246°
2026-04-19 23:19 55.69849 51.25446 11965 ft 301 kts 246°
2026-04-19 23:19 55.69024 51.22069 11403 ft 301 kts 246°
2026-04-19 23:19 55.68190 51.18669 10835 ft 301 kts 246°
2026-04-19 23:20 55.67354 51.15269 10265 ft 301 kts 246°
2026-04-19 23:20 55.66525 51.11901 9699 ft 300 kts 246°
2026-04-19 23:20 55.65702 51.08556 9135 ft 299 kts 246°
2026-04-19 23:20 55.64869 51.05171 8562 ft 298 kts 246°
2026-04-19 23:21 55.64045 51.01819 7992 ft 298 kts 246°
2026-04-19 23:21 55.63226 50.98481 7423 ft 297 kts 246°
2026-04-19 23:21 55.62415 50.95174 6857 ft 296 kts 246°
2026-04-19 23:21 55.61608 50.91880 6291 ft 294 kts 246°
2026-04-19 23:22 55.60789 50.88536 5714 ft 293 kts 246°
2026-04-19 23:22 55.60239 50.86285 5324 ft 293 kts 246°
2026-04-19 23:22 55.59432 50.82981 4749 ft 291 kts 247°
2026-04-19 23:22 55.58592 50.79539 4256 ft 317 kts 247°
2026-04-19 23:23 55.57722 50.75964 3758 ft 323 kts 247°
2026-04-19 23:23 55.56831 50.72304 3213 ft 322 kts 247°
2026-04-19 23:23 55.55954 50.68695 3524 ft 318 kts 247°
2026-04-19 23:23 55.55090 50.65136 4611 ft 321 kts 247°
2026-04-19 23:24 55.54200 50.61467 5539 ft 333 kts 247°
2026-04-19 23:24 55.53278 50.57657 5532 ft 336 kts 247°
2026-04-19 23:24 55.52370 50.53902 5517 ft 334 kts 247°
2026-04-19 23:24 55.51452 50.50103 5486 ft 333 kts 247°
2026-04-19 23:25 55.50542 50.46331 5440 ft 332 kts 247°
2026-04-19 23:25 55.49634 50.42563 5403 ft 334 kts 248°
2026-04-19 23:25 55.48733 50.38821 5387 ft 334 kts 248°
2026-04-19 23:25 55.47981 50.34896 5337 ft 339 kts 259°
2026-04-19 23:26 55.47749 50.30543 5535 ft 368 kts 265°
2026-04-19 23:26 55.47506 50.25935 5544 ft 380 kts 265°
2026-04-19 23:26 55.47302 50.21313 5579 ft 378 kts 265°
2026-04-19 23:26 55.47085 50.16698 5275 ft 378 kts 265°
2026-04-19 23:27 55.46873 50.12039 5023 ft 376 kts 265°
2026-04-19 23:27 55.46663 50.07493 4770 ft 374 kts 265°
2026-04-19 23:27 55.46450 50.02896 4528 ft 373 kts 265°
2026-04-19 23:27 55.46239 49.98379 4488 ft 371 kts 265°
2026-04-19 23:28 55.46024 49.93802 4594 ft 372 kts 265°
2026-04-19 23:28 55.45807 49.89226 4714 ft 373 kts 265°
2026-04-19 23:28 55.45589 49.84645 4846 ft 374 kts 265°
2026-04-19 23:28 55.45371 49.80112 4958 ft 372 kts 265°
2026-04-19 23:29 55.45149 49.75518 5033 ft 371 kts 265°
2026-04-19 23:29 55.45184 49.71040 5019 ft 366 kts 279°
2026-04-19 23:29 55.45919 49.66954 4678 ft 339 kts 296°
2026-04-19 23:29 55.47053 49.63416 4076 ft 326 kts 301°
2026-04-19 23:30 55.48237 49.60071 3557 ft 313 kts 303°
2026-04-19 23:30 55.49355 49.57105 3405 ft 265 kts 304°
2026-04-19 23:30 55.50300 49.54626 3344 ft 228 kts 304°
2026-04-19 23:30 55.51127 49.52478 3296 ft 194 kts 304°
2026-04-19 23:31 55.51836 49.50647 3150 ft 170 kts 304°
2026-04-19 23:31 55.52494 49.48948 3203 ft 165 kts 305°
2026-04-19 23:31 55.53157 49.47243 2987 ft 170 kts 305°
2026-04-19 23:31 55.53822 49.45513 2739 ft 170 kts 304°
2026-04-19 23:32 55.54477 49.43782 2548 ft 171 kts 304°
2026-04-19 23:32 55.55123 49.42074 2179 ft 161 kts 304°
2026-04-19 23:32 55.55665 49.40394 1977 ft 156 kts 299°
2026-04-19 23:32 55.56289 49.38839 1858 ft 153 kts 310°
2026-04-19 23:33 55.56973 49.37338 1846 ft 166 kts 307°
2026-04-19 23:33 55.57668 49.35609 1608 ft 168 kts 305°
2026-04-19 23:33 55.58247 49.34067 1192 ft 150 kts 302°
2026-04-19 23:33 55.58310 49.33894 1158 ft 148 kts 303°
2026-04-19 23:34 55.58866 49.32421 823 ft 139 kts 304°
2026-04-19 23:34 55.59404 49.31023 591 ft 134 kts 304°
2026-04-19 23:34 55.59925 49.29689 415 ft 136 kts 304°
2026-04-19 23:34 55.60419 49.28434 395 ft 101 kts 305°
2026-04-19 23:35 55.60682 49.27746 384 ft 48 kts 304°
2026-04-19 23:35 55.60879 49.27230 374 ft 52 kts 306°
2026-04-19 23:35 55.61072 49.26783 365 ft 27 kts 340°
2026-04-19 23:35 55.61203 49.26928 368 ft 28 kts 70°
2026-04-19 23:36 55.61030 49.27482 379 ft 73 kts 124°
2026-04-19 23:36 55.60775 49.28144 394 ft 56 kts 122°
2026-04-19 23:36 55.60607 49.28586 402 ft 23 kts 113°
2026-04-19 23:36 55.60589 49.28751 404 ft 10 kts 92°
2026-04-19 23:37 55.60580 49.28950 404 ft 25 kts 95°
2026-04-19 23:37 55.60644 49.29222 407 ft 32 kts 34°
2026-04-19 23:37 55.60817 49.29442 406 ft 16 kts 60°
2026-04-19 23:37 55.60764 49.29608 409 ft 23 kts 125°
2026-04-19 23:38 55.60679 49.29825 412 ft 20 kts 121°
2026-04-19 23:38 55.60708 49.29951 411 ft 3 kts 35°
2026-04-19 23:38 55.60717 49.29962 411 ft 0 kts 33°